Regional Weather Roundup
Issued by NWS

Home | Current Version | Previous Version | Text Only | Print | Product List | Glossary On
Versions: 1 2 3 4 5 6 7 8 9 10 11 12 13 14 15 16 17 18 19 20 21 22 23 24 25 26 27 28 29 30 31 32 33 34 35 36 37 38 39 40 41 42 43 44 45 46 47 48 49 50
000
ASUS46 KLOX 310303
RWRCA

SOUTHERN CALIFORNIA WEATHER ROUNDUP
NATIONAL WEATHER SERVICE OXNARD CALIFORNIA
800 PM PDT SAT JUL 30 2016

NOTE: "FAIR" INDICATES FEW OR NO CLOUDS BELOW 12,000 FEET WITH NO
SIGNIFICANT WEATHER AND/OR OBSTRUCTIONS TO VISIBILITY.

  -  STATIONS PRECEEDED BY AN ASTERISK (*) ARE NOT NWS OR FAA
     STATIONS AND ARE NOT SUBJECT TO NWS AND FAA QUALITY CONTROL.

CAZ041-042-087-310400-
LA AND ORANGE COUNTY COASTAL AREAS


CITY           SKY/WX    TMP DP  RH WIND       PRES   REMARKS
L.A. DOWNTOWN  CLEAR     75  65  70 W5        29.82S
L.A. AIRPORT   PTCLDY    71  65  81 W7        29.83S
LONG BEACH     CLEAR     75  64  68 SE5       29.83R

CITY           SKY/WX    TMP DP  RH WIND       PRES   REMARKS
AVALON           N/A     73 N/A N/A MISG        N/A
FULLERTON      CLEAR     77  65  66 SW6       29.82R
*GETTY CENTER    N/A     73  63  68 CALM        N/A
HAWTHORNE      CLEAR     73  66  78 NW6       29.83S
*LOS ALAMITOS  FAIR      73  67  79 S5        29.83R
*REDONDO BEACH   N/A     71  65  81 CALM      29.83R
SANTA ANA      PTCLDY    72  65  78 SW8       29.83R
STA MONICA APT CLEAR     71  65  81 SW5       29.83S
TORRANCE       PTCLDY    72  68  88 W12       29.84R
*UCLA            N/A     72  63  73 S3        29.81S

$$

CAZ547-548-048-310400-
LA COUNTY VALLEYS AND INLAND EMPIRE


CITY           SKY/WX    TMP DP  RH WIND       PRES   REMARKS
BURBANK        CLEAR     79  65  62 S6        29.83S
VAN NUYS       CLEAR     81  64  56 SE7       29.83R

CITY           SKY/WX    TMP DP  RH WIND       PRES   REMARKS
CORONA AIRPORT CLEAR     79  65  62 NW12      29.83R
*CHATSWORTH      N/A     82  63  51 E2        29.80S
CHINO          PTCLDY    81  63  54 W15       29.84R
*CLAREMONT       N/A     81  63  54 SW6         N/A
MARCH AFB      PTCLDY    85  63  47 NW10      29.86R
*NORTHRIDGE      N/A     81  59  47 E2          N/A
ONTARIO        PTCLDY    84  63  49 W13       29.83R
*PASADENA        N/A     81  68  65 CALM        N/A
RIVERSIDE      CLEAR     83  61  47 W9        29.83R
SAN BERNARDINO PTCLDY    90  59  35 W8        29.84R HAZE
*SAN GABRIEL     N/A     80  66  63 S3        29.87S
*WHITEMAN AP   CLEAR     84  63  48 E6        29.88
*WOODLAND HILL   N/A     84  55  37 E2          N/A

$$

CAZ054-055-310400-
LA AND SAN BERNARDINO COUNTY MOUNTAINS


CITY           SKY/WX    TMP DP  RH WIND       PRES   REMARKS
*ACTON           N/A     84  59  42 SW5         N/A
*BIG BEAR AIRP PTCLDY    66  59  77 CALM      30.21S HAZE
*BIG PINES       N/A     68  57  67 CALM        N/A
*CHILAO          N/A     73  60  63 SW5         N/A
SANDBERG       CLEAR     78  56  46 S13       30.06R
*WARM SPRINGS    N/A     75 -11   3 CALM        N/A

$$

CAZ028-029-059-060-099-310400-
ANTELOPE VALLEY AND SURROUNDING AREAS


CITY           SKY/WX    TMP DP  RH WIND       PRES   REMARKS
LANCASTER      CLEAR     86  57  37 SW21G31   29.85R
PALMDALE       CLEAR     87  56  34 SW23      29.87R

CITY           SKY/WX    TMP DP  RH WIND       PRES   REMARKS
29 PALMS       PTCLDY    90  63  40 SW21G29   29.86S BLWGDUSTHX  91
BARSTOW/DAGGET MOCLDY   101  51  18 W16       29.75R HX  98
BISHOP         PTCLDY    92  39  15 W9        29.88R
CHINA LAKE     PTCLDY   100  42  13 SW15      29.74R HX  95
EDWARDS AFB    CLEAR     91  54  29 SW23G30   29.81R
MOJAVE         CLEAR     95  43  16 SW12      29.86S HX  91
NEEDLES        PTCLDY    99  64  31 S10       29.73R HX 101
VICTORVILLE    CLEAR     88  55  33 S13       29.88S

$$

CAZ039-040-310400-
VENTURA AND SANTA BARBARA COUNTY COAST


CITY           SKY/WX    TMP DP  RH WIND       PRES   REMARKS
CAMARILLO      CLEAR     70  66  87 NW3       29.83R FOG
NWS OXNARD       N/A     70  64  81 CALM      29.82S
OXNARD AIRPORT CLOUDY    67  65  93 W8        29.83R FOG
*POINT MUGU    CLOUDY    70  65  84 W6        29.83S FOG
SBA APT/GOLETA CLEAR     65  63  93 W6        29.82R
*SANTA BARBARA   N/A     72  61  68 CALM      29.90R
*VENTURA         N/A     68  65  88 SW3       29.81R

$$

CAZ044-045-310400-
VENTURA COUNTY VALLEYS


CITY           SKY/WX    TMP DP  RH WIND       PRES   REMARKS
*SIMI VALLEY     N/A     78  61  56 W1        29.77S
*WESTLAKE VILL   N/A     75  63  64 CALM      29.79R
*OJAI            N/A     76  63  63 CALM      29.76R
*FILLMORE        N/A     79  64  60 CALM      29.73

$$

CAZ053-310400-
VENTURA COUNTY MOUNTAINS


CITY           SKY/WX    TMP DP  RH WIND       PRES   REMARKS
*ROSE VALLEY     N/A     81  57  44 MISG        N/A

$$

CAZ034-035-036-310400-
CENTRAL COAST AND SANTA YNEZ VALLEY


CITY           SKY/WX    TMP DP  RH WIND       PRES   REMARKS
SAN LUIS OBISP CLEAR     68  57  68 NW7       29.84R
SANTA MARIA    CLEAR     63  58  83 W6        29.85S

CITY           SKY/WX    TMP DP  RH WIND       PRES   REMARKS
*CAL POLY SLO    N/A     72  59  64 SW5         N/A
*LOMPOC        CLEAR     61  58  90 W8        29.84S
*PISMO BEACH     N/A     62  59  90 SW3       29.85S
*SANTA YNEZ    FAIR      73  55  53 W7        29.83S

$$

CAZ037-038-051-310400-
SAN LUIS OBISPO COUNTY INTERIOR AND CUYAMA VALLEY


CITY           SKY/WX    TMP DP  RH WIND       PRES   REMARKS
*CUYAMA          N/A     88  53  29 W13       29.68R
PASO ROBLES    CLEAR     78  52  40 SW16      29.81R

$$

CAZ032-033-061-310400-
SOUTHERN DESERTS


CITY           SKY/WX    TMP DP  RH WIND       PRES   REMARKS
BLYTHE         CLEAR     94  69  44 S16       29.72S HX  99
IMPERIAL       CLEAR     96  72  45 SE12      29.69R HX 104
PALM SPRINGS   CLEAR     96  70  42 SE5       29.75S HX 102
THERMAL        CLEAR     95  69  42 S3        29.68S HX 100

$$

ELSEWHERE ACROSS THE WESTERN UNITED STATES AND MEXICO


CITY           SKY/WX    TMP DP  RH WIND       PRES   REMARKS
DENVER, CO     MOCLDY    84  41  21 N6        30.01R
GRAND CANYON,  MOCLDY    73  50  44 SE6       30.20S
HONOLULU, HI   MOSUNNY   86  65  49 NE10G20   29.93S
KAHULUI, MAUI  MOSUNNY   85  67  54 NE22G31   29.91S
LAKE TAHOE, CA CLEAR     73  41  31 SW5       30.15S
LAS VEGAS, NV  PTCLDY   100  54  21 S9        29.70R HX  98
MAMMOTH LAKES,   N/A     75  40  28 W12       30.21S
MEXICO CITY, M MOCLDY    63  54  72 SW6       30.31R
PHOENIX, AZ    PTCLDY    96  63  33 SW10      29.75R HX  97
PORTLAND, OR   PTCLDY    72  49  44 NW20      29.95S
RENO, NV       CLEAR     87  41  19 NW17      29.96R
SALT LAKE CITY MOCLDY    92  47  21 N3        29.88R
SAN DIEGO, CA  MOCLDY    70  64  81 SW3       29.86R
SAN FRANCISCO, PTCLDY    60  53  77 NW16      29.80S
SAN JOSE, CA   PTCLDY    70  56  61 NW12      29.80R
SEATTLE, WA    PTCLDY    70  56  61 S8        29.92F
TIJUANA, MEX   PTCLDY    72  61  68 NW9       29.88R

$$

STATION/POSITION TIME  TEMP    WIND        PRES    VSBY  WAVE
                       AIR SEA DIR/SP/G                  HT/PER
                 (UTC) (F)     (DEG/KT/KT) (MB)    (MI)  (FT/S)
POINT ARGUELLO B NOT AVBL
WEST SANTA BARBA 0150   61 65  310/ 16/ 17 1009.9F         5/10
POINT CONCEPTION NOT AVBL
EAST SANTA BARBA 0200          260/ 12/ 14 1010.1R
SANTA MONICA BAY 0200   69 71  230/  2/  2 1009.6F



USA.gov is the U.S. government's official web portal to all federal, state and local government web resources and services.